Location: Bishop�s Knoyle
(51.0728°N, 2.1714°W)
Time: 23:03:35
(UTC+00:00)

DMSP B5D2-2 - Pass Details

Date: 18 September 2020
Orbit: 790 x 806 km, 98.3° (Epoch: 31 October)

Event Time Altitude Azimuth Distance (km) Brightness Sun altitude
Rises 20:18:28 0° 14° (NNE) 3,335 7.5 -19.4°
Reaches altitude 10° 20:20:49 10° 13° (NNE) 2,400 6.7 -19.7°
Maximum altitude 20:26:08 83° 286° (WNW) 819 4.1 -20.4°
Drops below altitude 10° 20:31:25 10° 200° (SSW) 2,382 6.4 -21.1°
Sets 20:33:44 0° 199° (SSW) 3,307 7.2 -21.4°
